DW2973 Weather Reports


time (UTC)temp
F
wind
direction
speed
knots
gust
knots
rain 1hr
in
rain 24hr
in
rain mn
in
humidity
%
barometer
mb
20260506181559 54 256 0.0 0.0 0.00 0.00 0.00 54 1010.8
20260506180057 55 256 0.0 0.0 0.00 0.00 0.00 53 1010.6
20260506174558 55 256 0.0 0.0 0.00 0.00 0.00 54 1010.5
20260506173127 55 348 0.0 0.0 0.00 0.00 0.00 61 1010.5
20260506171605 57 348 0.0 0.0 0.00 0.00 0.00 57 1010.4
20260506170055 56 346 0.0 0.0 0.00 0.00 0.00 56 1010.3
20260506164601 56 32 0.0 0.0 0.00 0.00 0.00 59 1010.4
20260506163105 55 32 0.0 0.0 0.00 0.00 0.00 61 1010.4
20260506161629 56 72 0.0 0.0 0.00 0.00 0.00 60 1010.3
20260506160101 56 60 0.0 0.0 0.00 0.00 0.00 59 1010.1
20260506154555 57 327 0.0 0.0 0.00 0.00 0.00 57 1010.2
20260506153057 57 343 0.9 0.0 0.00 0.00 0.00 57 1010.0
20260506151552 56 360 0.9 0.0 0.00 0.00 0.00 57 1010.0
20260506150052 56 336 0.9 0.0 0.00 0.00 0.00 56 1010.1
20260506144552 57 324 0.9 0.0 0.00 0.00 0.00 56 1010.1
20260506143052 57 17 0.9 0.0 0.00 0.00 0.00 57 1010.1
20260506141551 57 34 0.0 0.0 0.00 0.00 0.00 56 1010.2
20260506140051 57 360 0.0 0.0 0.00 0.00 0.00 57 1010.2
20260506134550 56 355 0.9 0.0 0.00 0.00 0.00 57 1010.0
20260506133050 56 18 1.7 0.0 0.00 0.00 0.00 58 1009.9
20260506131554 56 49 2.6 0.0 0.00 0.00 0.00 59 1009.9
20260506124556 56 32 1.7 0.0 0.00 0.00 0.00 61 1009.7
20260506123048 57 41 1.7 0.0 0.00 0.00 0.00 59 1009.8
20260506121548 57 342 1.7 0.0 0.00 0.00 0.00 59 1009.8
20260506120047 57 33 0.9 0.0 0.00 0.00 0.00 58 1009.8
20260506114546 56 18 1.7 0.0 0.00 0.00 0.00 57 1010.0
20260506113053 57 19 0.9 0.0 0.00 0.00 0.00 57 1009.9
20260506111544 57 9 0.9 0.0 0.00 0.00 0.00 58 1009.9
20260506110052 56 9 0.0 0.0 0.00 0.00 0.00 62 1010.0
20260506104548 55 14 0.9 0.0 0.00 0.00 0.00 63 1010.0
20260506103048 57 13 0.0 0.0 0.00 0.00 0.00 60 1010.2
20260506101550 55 11 0.9 0.0 0.00 0.00 0.00 63 1010.1
20260506100057 54 44 0.9 0.0 0.00 0.00 0.00 62 1010.1
20260506094536 54 19 0.9 0.0 0.00 0.00 0.00 62 1010.1
20260506093042 53 11 0.9 0.0 0.00 0.00 0.00 62 1010.1
20260506091537 53 19 0.9 0.0 0.00 0.00 0.00 62 1010.2
20260506090033 53 36 1.7 0.0 0.00 0.00 0.00 58 1010.1
20260506084540 54 18 0.9 0.0 0.00 0.00 0.00 60 1010.1
20260506083033 54 5 0.9 0.0 0.00 0.00 0.00 58 1009.9
20260506081540 54 11 0.9 0.0 0.00 0.00 0.00 58 1009.7
20260506073038 53 43 0.0 0.0 0.00 0.00 0.00 47 1009.8
20260506071525 52 44 0.0 0.0 0.00 0.00 0.00 50 1009.8
20260506061514 50 24 0.0 0.0 0.00 0.00 0.00 53 1010.0
20260506044703 42 317 0.0 0.0 0.00 0.00 0.00 69 1010.3
20260506043107 41 302 0.0 0.0 0.00 0.00 0.00 70 1010.2
20260506041603 40 340 0.0 0.0 0.00 0.00 0.00 72 1010.3
20260506040055 40 340 0.0 0.0 0.00 0.00 0.00 70 1010.2
20260506034625 39 9 0.0 0.0 0.00 0.00 0.00 70 1010.2
20260506033101 39 9 0.0 0.0 0.00 0.00 0.00 71 1010.3
20260506031553 39 9 0.0 0.0 0.00 0.00 0.00 70 1010.3
20260506030052 39 9 0.0 0.0 0.00 0.00 0.00 70 1010.5
20260506024551 40 9 0.0 0.0 0.00 0.00 0.00 70 1010.5
20260506023106 40 9 0.0 0.0 0.00 0.00 0.00 70 1010.6
20260506021548 41 9 0.0 0.0 0.00 0.00 0.00 69 1010.7
20260506020047 40 9 0.0 0.0 0.00 0.00 0.00 70 1010.8
20260506014545 41 9 0.0 0.0 0.00 0.00 0.00 70 1010.8
20260506013043 41 9 0.0 0.0 0.00 0.00 0.00 70 1010.6
20260506011540 42 9 0.0 0.0 0.00 0.00 0.00 72 1010.5
20260506010045 42 9 0.0 0.0 0.00 0.00 0.00 74 1010.4
20260506004558 42 9 0.0 0.0 0.00 0.00 0.00 76 1010.3
20260506003045 42 9 0.0 0.0 0.00 0.00 0.00 78 1010.4
20260506001539 42 9 0.0 0.0 0.00 0.00 0.00 79 1010.3
20260506000034 42 9 0.0 0.0 0.00 0.00 0.00 80 1010.3
20260505234555 42 9 0.0 0.0 0.00 0.00 0.00 80 1010.3
20260505233037 43 9 0.0 0.0 0.00 0.00 0.00 80 1010.2
20260505231534 43 9 0.0 0.0 0.00 0.00 0.00 81 1010.3
20260505230038 42 9 0.0 0.0 0.00 0.00 0.00 82 1010.3
20260505224529 42 9 0.0 0.0 0.00 0.00 0.00 83 1010.5
20260505223025 42 9 0.0 0.0 0.00 0.00 0.00 83 1010.7
20260505221524 42 9 0.0 0.0 0.00 0.00 0.00 83 1010.7
20260505220030 42 9 0.0 0.0 0.00 0.00 0.00 82 1010.7
20260505214524 42 9 0.0 0.0 0.00 0.00 0.00 82 1010.7
20260505213021 42 9 0.0 0.0 0.00 0.00 0.00 82 1010.7
20260505211521 42 9 0.0 0.0 0.00 0.00 0.00 82 1010.8
20260505210019 42 9 0.0 0.0 0.00 0.00 0.00 81 1010.9
20260505204518 43 9 0.0 0.0 0.00 0.00 0.00 80 1010.9
20260505203017 43 9 0.0 0.0 0.00 0.00 0.00 79 1010.8
20260505201522 43 9 0.0 0.0 0.00 0.00 0.00 77 1010.8
20260505200014 44 9 0.0 0.0 0.00 0.00 0.00 75 1010.9
20260505194528 45 9 0.0 0.0 0.00 0.00 0.00 73 1010.8
20260505193029 45 9 0.0 0.0 0.00 0.00 0.00 72 1010.7
20260505191509 46 9 0.0 0.0 0.00 0.00 0.00 69 1010.8
20260505190011 47 9 0.0 0.0 0.00 0.00 0.00 68 1010.7
20260505184507 48 9 0.0 0.0 0.00 0.00 0.00 65 1010.7
20260505183012 49 9 0.0 0.0 0.00 0.00 0.00 62 1010.5